Flag for Germany Weather past 2 weeks in Weyhe, Lower Saxony, Germany

Now
54 °F

Partly sunny.


Feels Like: 51 °F
Forecast: 50 / 57 °F
Wind: 9 mph from Southwest

Location: Bremen Airport

Current Time: Oct 23, 2014 at 6:33:08 PM

Latest Report: Oct 23, 2014 at 5:50 PM


Visibility: 4 mi

Pressure: 30.15 "Hg

Humidity: 88%

Dew point: 50 °F

Location of WeyheLocation

Historic Weather in Weyhe — Graph

°F

Weyhe temperature yesterday

Maximum temperature yesterday: 52 °F (at 3:20 PM)
Minimum temperature yesterday: 48 °F (at 12:20 AM)
Average temperature yesterday: 50 °F

Past Weeks' High & Low Weather Summary

 TemperatureHumidityPressure
High73 °F (Oct 19, 1:50 PM)100% (Oct 11, 5:50 AM)30.18 "Hg (Oct 11, 5:50 AM)
Low43 °F (Oct 23, 4:50 AM)56% (Oct 14, 2:50 PM)29.39 "Hg (Oct 21, 4:50 PM)
Average56 °F87%29.82 "Hg
* Reported Oct 8 5:20 PM — Oct 23 5:20 PM, Weyhe, Weather by CustomWeather, © 2014

Note: Actual official high and low records may vary slightly from our data, if they occured in-between our weather recording intervals... More about our weather records

Advertising

Weyhe weather history for previous 24 hours

 ConditionsComfort  
Time TempWeatherWind HumidityBarometerVisibility
5:20 PM
Oct 23
54 °FPartly sunny.8 mph88%30.15 "HgN/A
4:50 PM54 °FPartly sunny.8 mph88%30.15 "HgN/A
4:20 PM55 °FPartly sunny.9 mph82%30.15 "HgN/A
3:50 PM55 °FPartly sunny.9 mph82%30.15 "HgN/A
3:20 PM55 °FBroken clouds.9 mph82%30.15 "HgN/A
2:50 PM55 °FBroken clouds.7 mph82%30.18 "HgN/A
2:20 PM55 °FPartly sunny.8 mph82%30.18 "HgN/A
1:50 PM54 °FBroken clouds.8 mph82%30.18 "HgN/A
1:20 PM54 °FPartly sunny.8 mph82%30.18 "HgN/A
12:50 PM54 °FPartly sunny.6 mph82%30.18 "HgN/A
12:20 PM52 °FPartly sunny.6 mph88%30.18 "HgN/A
11:50 AM52 °FPartly sunny.8 mph88%30.18 "HgN/A
11:20 AM52 °FPartly sunny.7 mph88%30.18 "HgN/A
10:50 AM52 °FBroken clouds.7 mph82%30.18 "HgN/A
10:20 AM50 °FPartly sunny.6 mph88%30.18 "HgN/A
9:50 AM48 °FPartly sunny.6 mph94%30.18 "HgN/A
9:20 AM48 °FPartly sunny.5 mph87%30.15 "HgN/A
8:50 AM48 °FPassing clouds.5 mph87%30.15 "HgN/A
8:20 AM46 °FPassing clouds.3 mph93%30.15 "HgN/A
7:50 AM45 °FPartly cloudy.2 mph93%30.15 "HgN/A
7:20 AM45 °FPassing clouds.3 mph93%30.12 "HgN/A
6:50 AM43 °FPartly cloudy.3 mph93%30.12 "HgN/A
6:20 AM43 °FPartly cloudy.3 mph93%30.12 "HgN/A
5:50 AM43 °FClear.3 mph93%30.12 "Hg10 mi
5:20 AM45 °FPassing clouds.2 mph87%30.12 "HgN/A
4:50 AM43 °FPassing clouds.5 mph93%30.12 "HgN/A
4:20 AM46 °FClear.5 mph82%30.12 "Hg10 mi
3:50 AM46 °FClear.5 mph87%30.12 "Hg10 mi
3:20 AM48 °FPassing clouds.6 mph82%30.12 "HgN/A
2:50 AM48 °FPassing clouds.7 mph82%30.09 "HgN/A
2:20 AM50 °FPassing clouds.8 mph76%30.09 "HgN/A
1:50 AM50 °FPassing clouds.9 mph71%30.09 "HgN/A
1:20 AM50 °FPassing clouds.10 mph71%30.09 "HgN/A
12:50 AM50 °FPassing clouds.10 mph76%30.09 "HgN/A
12:20 AM50 °FPassing clouds.9 mph76%30.07 "HgN/A
11:50 PM
Oct 22
50 °FPassing clouds.9 mph76%30.07 "HgN/A
11:20 PM50 °FPassing clouds.10 mph76%30.07 "HgN/A
10:50 PM50 °FPassing clouds.9 mph76%30.07 "HgN/A
10:20 PM50 °FPassing clouds.10 mph76%30.07 "HgN/A
9:50 PM50 °FPartly cloudy.14 mph76%30.07 "HgN/A
9:20 PM50 °FPartly cloudy.13 mph82%30.04 "HgN/A
8:50 PM50 °FPassing clouds.14 mph82%30.04 "HgN/A
8:20 PM50 °FOvercast.15 mph82%30.01 "HgN/A
7:50 PM52 °FOvercast.13 mph77%30.01 "HgN/A
7:20 PM52 °FPartly cloudy.13 mph82%29.98 "HgN/A
6:50 PM52 °FDrizzle. Partly sunny.15 mph82%29.98 "Hg4 mi
6:20 PM52 °FDrizzle. Partly sunny.15 mph82%29.95 "Hg4 mi
Weather by CustomWeather, © 2014

See weather overviewHow to use our weather pages